Regional Weather Roundup
Issued by NWS

Home | Current Version | Previous Version | Graphics & Text | Print | Product List | Glossary On
Versions: 1 2 3 4 5 6 7 8 9 10 11 12 13 14 15 16 17 18 19 20 21 22 23 24 25 26 27 28 29 30 31 32 33 34 35 36 37 38 39 40 41 42 43 44 45 46 47 48 49 50
917
ASUS43 KOAX 241810
RWRNE

WEATHER ROUNDUP FOR NEBRASKA
NATIONAL WEATHER SERVICE OMAHA NE
100 PM CDT TUE MAY 24 2016

NOTES: SATELLITE DATA IS BEING USED TO AUGMENT CLOUD COVER ABOVE
       12000 FEET.
       "FAIR" INDICATES FEW OR NO CLOUDS BELOW 12,000 FEET WITH NO
       SIGNIFICANT WEATHER AND/OR OBSTRUCTIONS TO VISIBILITY.

  * THESE STATIONS DO NOT REPORT WEATHER SUCH AS RAIN...SNOW OR FOG.

NEZ001>004-019>022-054>056-241900-
NEBRASKA PANHANDLE

CITY           SKY/WX    TMP DP  RH WIND       PRES   REMARKS
SCOTTSBLUFF    MOSUNNY   70  48  45 SE13G20   29.92F
6HR MIN TEMP:  39; 6HR MAX TEMP:  71;

ALLIANCE       SUNNY     73  46  38 S16G24    29.93S
6HR MIN TEMP:  35; 6HR MAX TEMP:  73;

CHADRON        SUNNY     73  45  36 E8        29.89F
6HR MIN TEMP:  41; 6HR MAX TEMP:  73;

KIMBALL        MOSUNNY   68  47  45 S17       29.96F
SIDNEY         PTSUNNY   72  47  40 S14G20    29.95F
6HR MIN TEMP:  44; 6HR MAX TEMP:  72;

$$

NEZ057>060-069>072-079>082-241900-
SOUTHWEST NEBRASKA

CITY           SKY/WX    TMP DP  RH WIND       PRES   REMARKS
NORTH PLATTE   SUNNY     76  57  51 S16       29.90F
6HR MIN TEMP:  53; 6HR MAX TEMP:  77;

IMPERIAL       SUNNY     73  54  51 SE18      29.92F
6HR MIN TEMP:  55; 6HR MAX TEMP:  74;

LEXINGTON      SUNNY     74  60  61 S10       29.92F
MCCOOK         SUNNY     75  59  57 S14G22    29.92F
6HR MIN TEMP:  53; 6HR MAX TEMP:  75;

OGALLALA       SUNNY     75  47  36 S13G18    29.92F
$$

NEZ005>010-023>029-035>040-094-241900-
NORTH CENTRAL NEBRASKA

CITY           SKY/WX    TMP DP  RH WIND       PRES   REMARKS
VALENTINE      SUNNY     77  38  24 VRB3      29.90F
6HR MIN TEMP:  47; 6HR MAX TEMP:  77;

AINSWORTH      SUNNY     76  44  31 S6        29.91S
BROKEN BOW     SUNNY     76  59  55 SW12G21   29.91S
6HR MIN TEMP:  51; 6HR MAX TEMP:  77;

O`NEILL        SUNNY     79  48  33 S9        29.90S
ORD            CLOUDY    77  61  57 SW9       29.88F
6HR MIN TEMP:  53; 6HR MAX TEMP:  77;

THEDFORD       SUNNY     78  46  31 S10G18    29.92S
$$

NEZ041-046>049-061>064-073>077-083>087-241900-
SOUTH CENTRAL NEBRASKA

CITY           SKY/WX    TMP DP  RH WIND       PRES   REMARKS
GRAND ISLAND   SUNNY     76  59  55 S8        29.90F
6HR MIN TEMP:  59; 6HR MAX TEMP:  77; 6HR PCP: TRACE;

AURORA         SUNNY     76  57  51 W3        29.90F
HASTINGS       SUNNY     73  58  59 S12G20    29.90F
6HR MIN TEMP:  61; 6HR MAX TEMP:  74; 6HR PCP:  0.01;

HEBRON         SUNNY     73  60  64 S13       29.90S
HOLDREGE       SUNNY     73  55  53 S14       29.91F
KEARNEY *      SUNNY     75  55  50 S12       29.92S
YORK           SUNNY     73  61  64 S7        29.91S
$$

NEZ011>018-030>034-042>045-241900-
NORTHEAST NEBRASKA

CITY           SKY/WX    TMP DP  RH WIND       PRES   REMARKS
NORFOLK        SUNNY     79  61  53 MISG      29.88S
6HR MIN TEMP:  58; 6HR MAX TEMP:  79;

ALBION         SUNNY     79  57  47 SW7       29.89S
BLAIR          SUNNY     76  64  66 W3        29.88F
FREMONT        SUNNY     75  64  68 CALM      29.89F
TEKAMAH        MOSUNNY   75  64  68 SW3       29.88F
6HR MIN TEMP:  58; 6HR MAX TEMP:  76;

WAYNE          SUNNY     80  67  64 SW7       29.88S
$$

NEZ050>053-065>068-078-088>093-241900-
SOUTHEAST NEBRASKA

CITY           SKY/WX    TMP DP  RH WIND       PRES   REMARKS
LINCOLN        CLOUDY    75  59  57 W8        29.90S
6HR MIN TEMP:  60; 6HR MAX TEMP:  75; 6HR PCP: TRACE;

OMAHA EPPLEY   PTSUNNY   77  64  64 N5        29.87F
6HR MIN TEMP:  62; 6HR MAX TEMP:  78;

BEATRICE       CLOUDY    73  61  65 W9        29.89S
FALLS CITY     CLOUDY    78  62  57 S7        29.84R
6HR MIN TEMP:  63; 6HR MAX TEMP:  78; 6HR PCP:  0.08;

NEBRASKA CITY  MOSUNNY   74  61  65 N7        29.88R
PLATTSMOUTH    MOSUNNY   76  61  59 CALM      29.89S
$$

NEZ044-045-051>053-067-241900-
OMAHA AREA

CITY           SKY/WX    TMP DP  RH WIND       PRES   REMARKS
OMAHA EPPLEY   PTSUNNY   77  64  64 N5        29.87F
6HR MIN TEMP:  62; 6HR MAX TEMP:  78;

BLAIR          SUNNY     76  64  66 W3        29.88F
FREMONT        SUNNY     75  64  68 CALM      29.89F
MILLARD        MOSUNNY   77  59  52 SE3       29.88S
OFFUTT AFB     PTSUNNY   76  58  53 S5        29.87F
PLATTSMOUTH    MOSUNNY   76  61  59 CALM      29.89S
WAHOO          FAIR      76  61  59 W5        29.88F
$$




USA.gov is the U.S. government's official web portal to all federal, state and local government web resources and services.